STARLINK-3080 (49161 NORAD) Tracking and Keplerian Element Data

This shows tracking and keplerian element data for the satellite.

Feedback or suggestion? Click here.




ElementValue
Catalog49161
NameSTARLINK-3080
Epoch Orbit804
Epoch Day300.83334491
Epoch Year2021
RAAN3.9762
Inclination70.0008
Eccentricity0.0003667
Argument of Perigee294.2776
Mean Anonmoly74.3567
Mean Motion15.69744636
Decay Rate-0.00031705
L11 49161U 21082AH 21300.83334491 -.00031705 00000-0 -26484-3 0 9990
L22 49161 70.0008 3.9762 0003667 294.2776 74.3567 15.69744636 8049

Live tracking and technical data element details for STARLINK-3080 (NORAD 49161). STARLINK-3080 can be tracked NOW for your location showing map with azimuth and elevation plus other details from your city location.

Track the satellite on the map from your city or location and see movement details for azimuth, elevation, latitude, longitude, range, height, and movement on the map or in text.







IsCatalogInMostPopularTable: catalog: 49161, numindb: 6
Update: records affected: 1



GetName: 49161 STARLINK-3080

Hit Count: updated at: Thu, 28 Oct 2021 10:30:21 GMT